Regional Weather Roundup
Issued by NWS

Home | Current Version | Previous Version | Text Only | Print | Product List | Glossary On
Versions: 1 2 3 4 5 6 7 8 9 10 11 12 13 14 15 16 17 18 19 20 21 22 23 24 25 26 27 28 29 30 31 32 33 34 35 36 37 38 39 40 41 42 43 44 45 46 47 48 49 50
000
ASUS42 KTBW 282110
RWRFL
FLORIDA REGIONAL WEATHER ROUNDUP
NATIONAL WEATHER SERVICE TAMPA BAY RUSKIN FL
400 PM EST SAT FEB 28 2015

NOTE: "FAIR" INDICATES FEW OR NO CLOUDS BELOW 12,000 FEET WITH NO
SIGNIFICANT WEATHER AND/OR OBSTRUCTIONS TO VISIBILITY.


FLZ001>010-012>015-112-114-115-282200-
PANHANDLE FLORIDA

CITY           SKY/WX    TMP DP  RH WIND       PRES   REMARKS
PENSACOLA      CLOUDY    60  47  61 E7        30.34S
PENSACOLA NAS  CLOUDY    60  48  64 E9        30.34S
MILTON NAS     CLOUDY    60  47  61 E10       30.35F
CRESTVIEW      CLOUDY    59  48  67 E8        30.38S
DUKE FIELD     CLOUDY    58  48  70 E12G17    30.35S
VALPARAISO     CLOUDY    58  48  69 E12       30.35S
MARY ESTHER    CLOUDY    58  45  61 NE13      30.34R
TRI COUNTY     CLOUDY    51  46  83 NE8G18    30.41S
PANAMA CITY    CLOUDY    53  47  79 NE13G23   30.37S
TYNDALL AFB    CLOUDY    55  50  83 NE9G16    30.36R
APALACHICOLA   CLOUDY    60  50  69 NE17      30.34R

STATION/POSITION SKY/WX   TEMP    WIND        PRES    WAVE   SWELL
                          AIR SEA DIR/SP/G            HT/PER HT/PER
                          (F)     (DEG/KT/KT) (MB)    (FT/S) (FT/S)
30.1N   87.6W              56 62   80/ 17/ 19 1026.4F   4/ 6
29.2N   88.2W              62 70   80/ 14/ 17 1026.2F   5/ 7   3/ 7
28.7N   86.0W              61 67   90/ 19/ 23 1025.1    6/ 7
PANAMA CITY BEAC           53 56   60/ 10/ 20 1027.8R
CAPE SAN BLAS    NOT AVBL
TOWER C                    54      50/ 26/ 28 1026.5S
28.5N   84.5W              60 65   60/ 17/ 19 1025.3F   5/ 6

$$
FLZ011-016>038-118-127-128-134-139-239-282200-
NORTH FLORIDA

CITY           SKY/WX    TMP DP  RH WIND       PRES   REMARKS
MARIANNA       CLOUDY    49  49 100 NE14      30.41S WCI  44
TALLAHASSEE    CLOUDY    52  47  83 NE12G20   30.40R
PERRY          CLOUDY    51  49  94 NE12      30.39S
CROSS CITY       N/A     58  54  86 NE12      30.36R
LAKE CITY      LGT RAIN  50  48  93 NE9G16    30.40R
GAINESVILLE    CLOUDY    56  54  93 N10       30.36S FOG
MAYPORT NAS    LGT RAIN  53  52  96 N17G28    30.39R FOG
JACKSONVILLE   CLOUDY    51  51 100 N17       30.41R FOG
JAX NAS        LGT RAIN  57  53  86 N17       30.39S FOG
JAX CRAIG      CLOUDY    54  51  90 NE14G23   30.39S FOG
JAX CECIL      CLOUDY    54  52  94 NE15      30.39F FOG
FERNANDINA BEA CLOUDY    54  52  94 N16       30.41R
ST AUGUSTINE   CLOUDY    58  57  97 N12       30.37F FOG

STATION/POSITION SKY/WX   TEMP    WIND        PRES    WAVE   SWELL
                          AIR SEA DIR/SP/G            HT/PER HT/PER
                          (F)     (DEG/KT/KT) (MB)    (FT/S) (FT/S)
SHELL POINT      NOT AVBL
KEATON BEACH               52      50/ 13/ 19 1027.6F
CEDAR KEY                  61      60/ 12/ 14 1026.8F
FERNANDINA                 50 54   20/ 14/ 18 1029.3R
30.7N   81.3W                 53                N/A     7/ 8   2/11
MAYPORT                    53 55   20/ 18/ 26 1029.1R
31.4N   80.9W              48 52   30/ 29/ 35 1030.0F  10/ 8
ST AUGUSTINE               56     340/ 10/ 12 1028.4F

$$
FLZ040-043>046-052-053-057-058-063-144-282200-
INTERIOR CENTRAL FLORIDA

CITY           SKY/WX    TMP DP  RH WIND       PRES   REMARKS
OCALA          CLOUDY    64  59  82 NE9       30.32S
THE VILLAGES     N/A     64  64 100 NE8       30.22R FOG
LEESBURG       LGT RAIN  65  62  90 E9        30.32R FOG
SANFORD        LGT RAIN  64  62  93 NE9       30.31F FOG
ORLANDO EXEC   LGT RAIN  66  63  90 E10       30.31S FOG
ORLANDO INTL   LGT RAIN  66  64  93 E15       30.30F FOG
KISSIMMEE      RAIN      66  66 100 E14       30.30S FOG
WINTER HAVEN   LGT RAIN  66  65  96 E10       30.29F FOG
LAKELAND       LGT RAIN  66  64  94 NE13      30.29S
BARTOW         LGT RAIN  64  64 100 NE8       30.29F
OKEECHOBEE     CLOUDY    73  68  83 E9G18     30.25R

$$
FLZ041-047-054-059-064-141-147-282200-
EAST CENTRAL FLORIDA

CITY           SKY/WX    TMP DP  RH WIND       PRES   REMARKS
ORMOND BEACH   PTSUNNY   63  61  94 NE7       30.34R FOG
DAYTONA BEACH  LGT RAIN  65  62  90 E7        30.33R FOG
DELAND         CLOUDY   N/A N/A N/A NE6       30.33S
NEW SMYRNA BEA LGT RAIN  64  63  94 E3        30.33S FOG
JFK SPACE CTR  CLOUDY    68  62  82 E9        30.30R
TITUSVILLE     CLOUDY    66  64  94 E17       30.31R FOG
CAPE CANAVERAL CLOUDY    67  64  88 E10G16    30.29R
PATRICK AFB    CLOUDY    66  65  97 E20       30.27F
MELBOURNE      LGT RAIN  68  65  90 NE17      30.28R
VERO BEACH     CLOUDY    71  64  78 E15       30.27R
FT PIERCE      CLOUDY    72  67  84 E16G23    30.25S
STUART         LGT RAIN  72  68  88 E15G23    30.25S

STATION/POSITION SKY/WX   TEMP    WIND        PRES    WAVE   SWELL
                          AIR SEA DIR/SP/G            HT/PER HT/PER
                          (F)     (DEG/KT/KT) (MB)    (FT/S) (FT/S)
28.5N   80.2W              70 69   70/ 23/ 29 1025.3F
28.9N   78.5W              71 72   70/ 21/ 25 1027.0R   8/ 8   3/ 9
TRIDENT PIER     NOT AVBL
28.4N   80.5W                 62                N/A     5/ 8   2/11
27.6N   80.2W                 70                N/A     7/ 8   2/12

$$
FLZ050-056-061-142-242-148-248-149-249-151-251-155-255-
160-260-282200-
WEST CENTRAL FLORIDA

CITY           SKY/WX    TMP DP  RH WIND       PRES   REMARKS
CRYSTAL RIVER  CLOUDY    66  61  82 E13       30.30S
INVERNESS      RAIN      64  61  88 NE7       30.31F
BROOKSVILLE    LGT RAIN  66  63  90 E10       30.30S
ZEPHYRHILLS    LGT RAIN  63  63 100 E8        30.28F
CLEARWATER     CLOUDY    65  64  97 E8        30.27F
TAMPA INTL     LGT RAIN  67  64  90 E7        30.28F FOG
TAMPA EXEC       N/A     68  64  88 CALM      30.29R
PLANT CITY     RAIN     N/A N/A N/A E13       30.29S
MACDILL AFB    LGT RAIN  66  66 100 NE10      30.27F
PETER O KNIGHT DRIZZLE   68  68 100 NE5       30.28F
ST PETERSBURG  LGT RAIN  64  63  96 E12       30.26F
SARASOTA       CLOUDY    68  61  78 NE14      30.24R
VENICE         LGT RAIN  72  68  88 NW10      30.24R

STATION/POSITION SKY/WX   TEMP    WIND        PRES    WAVE   SWELL
                          AIR SEA DIR/SP/G            HT/PER HT/PER
                          (F)     (DEG/KT/KT) (MB)    (FT/S) (FT/S)
CEDAR KEY                  61      60/ 12/ 14 1026.8F
28.5N   84.5W              60 65   60/ 17/ 19 1025.3F   5/ 6
27.3N   84.3W                 69                N/A     5/ 6
CLEARWATER BEACH           66 61   70/  9/ 13 1024.7F
MIDDLE TAMPA BAY           63      70/ 11/ 15 1025.3F
VENICE                     70 62   40/  9/ 14 1023.2R

$$
FLZ066-069-070-075>078-162-262-165-265-282200-
SOUTHWEST FLORIDA AND KEYS

CITY           SKY/WX    TMP DP  RH WIND       PRES   REMARKS
PUNTA GORDA    CLOUDY    78  68  71 NE13      30.22S
FT MYERS       CLOUDY    82  68  62 NE13      30.17F
SOUTHWEST INTL LGT RAIN  78  68  71 E16       30.18S
NAPLES         CLOUDY    80  69  69 W8        30.17F
MARCO ISLAND   MOCLDY    81  70  69 W10       30.17S
IMMOKALEE      PTCLDY   N/A N/A N/A NE18      30.20S
MARATHON       SUNNY     81  74  79 E10       30.16F
KEY WEST NAS   MOSUNNY   80  72  76 E12       30.16F
KEY WEST INTL  SUNNY     81  74  79 E9        30.17F

STATION/POSITION SKY/WX   TEMP    WIND        PRES    WAVE   SWELL
                          AIR SEA DIR/SP/G            HT/PER HT/PER
                          (F)     (DEG/KT/KT) (MB)    (FT/S) (FT/S)
VENICE                     70 62   40/  9/ 14 1023.2R
NAPLES                     72 67  300/  6/  7 1021.7S
26.0N   85.6W              72 78   90/ 12/ 14 1022.3F   5/ 7   5/ 7
DRY TORTUGAS               70      70/  8/  9 1021.5F
SAND KEY                   75      80/  8/  9 1021.4F
SOMBRERO KEY               77      80/ 10/ 11 1022.1F
LONG KEY                   77 78  100/ 12/ 13 1022.8F
MOLASSES REEF              76 77   80/ 11/ 12 1021.8F

$$
FLZ067-068-071>074-168-172>174-282200-
SOUTHEAST FLORIDA

CITY           SKY/WX    TMP DP  RH WIND       PRES   REMARKS
W PALM BEACH   TSTM      73  70  90 E18G25    30.22S FOG
FT LAUDER-EXEC CLOUDY    76  73  91 E15       30.20F
FT LAUDERDALE  CLOUDY    73  73 100 E23       30.20S
POMPANO BEACH  CLOUDY    76  70  82 E13G22    30.20S
PEMBROKE PINES LGT RAIN  72  70  93 SE9       30.23R
OPA LOCKA      LGT RAIN N/A N/A N/A E13       30.21R
MIAMI          CLOUDY    74  69  85 NE8       30.21R
WEST KENDALL   CLOUDY    78  69  73 E15       30.20S
HOMESTEAD      PTSUNNY   79  71  77 NE12      30.19S

STATION/POSITION SKY/WX   TEMP    WIND        PRES    WAVE   SWELL
                          AIR SEA DIR/SP/G            HT/PER HT/PER
                          (F)     (DEG/KT/KT) (MB)    (FT/S) (FT/S)
PORT EVERGLADES            75      90/ 10/ 15 1023.0
VIRGINIA KEY               71 75   20/  3/  9 1022.4R
LAKE WORTH                 73 74   60/ 22/ 24 1023.0F



USA.gov is the U.S. government's official web portal to all federal, state and local government web resources and services.